• In Russia
  • List of Countries
  • For 7 days
  • Water Temperature
  • Satellite Maps
  • Weather Map
  • Weather Widgets
  • user-avatar
    Login

    Hourly Weather Tarin Kowt

    Today, 25 April, Thursday

    Time Temperature Precipitation Wind Pressure Humidity
    00:00 +15°C° 0 mm 1 mps 616 mmHg 37%
    01:00 +14°C° 0 mm 1 mps 616 mmHg 40%
    02:00 +14°C° 0 mm 1 mps 616 mmHg 40%
    03:00 +14°C° 0 mm 1 mps 616 mmHg 40%
    04:00 +13°C° 0 mm 1 mps 616 mmHg 40%
    05:00 +14°C° 0 mm 1 mps 617 mmHg 35%
    06:00 +15°C° 0 mm 1 mps 617 mmHg 31%
    07:00 +16°C° 0 mm 1 mps 618 mmHg 26%
    08:00 +17°C° 0 mm 2 mps 618 mmHg 24%
    09:00 +18°C° 0 mm 3 mps 619 mmHg 22%
    10:00 +19°C° 0 mm 3 mps 619 mmHg 19%
    11:00 +20°C° 0 mm 4 mps 619 mmHg 18%
    12:00 +21°C° 0 mm 5 mps 619 mmHg 18%
    13:00 +21°C° 0 mm 7 mps 619 mmHg 17%
    14:00 +21°C° 0 mm 7 mps 619 mmHg 18%
    15:00 +21°C° 0 mm 7 mps 619 mmHg 19%
    16:00 +20°C° 0 mm 7 mps 618 mmHg 19%
    17:00 +19°C° 0 mm 6 mps 618 mmHg 22%
    18:00 +18°C° 0 mm 4 mps 618 mmHg 25%
    19:00 +17°C° 0 mm 3 mps 618 mmHg 27%
    20:00 +16°C° 0 mm 2 mps 618 mmHg 30%
    21:00 +16°C° 0 mm 2 mps 618 mmHg 33%
    22:00 +15°C° 0 mm 1 mps 618 mmHg 36%
    23:00 +15°C° 0 mm 1 mps 618 mmHg 37%

    Tomorrow, 26 April, Friday

    Time Temperature Precipitation Wind Pressure Humidity
    00:00 +14°C° 0 mm 1 mps 617 mmHg 39%
    01:00 +12°C° 0 mm 0 mps 617 mmHg 41%
    02:00 +12°C° 0 mm 0 mps 617 mmHg 41%
    03:00 +12°C° 0 mm 0 mps 616 mmHg 41%
    04:00 +11°C° 0 mm 0 mps 616 mmHg 41%
    05:00 +12°C° 0 mm 0 mps 617 mmHg 37%
    06:00 +13°C° 0 mm 0 mps 617 mmHg 32%
    07:00 +14°C° 0 mm 0 mps 618 mmHg 27%
    08:00 +15°C° 0 mm 0 mps 618 mmHg 25%
    09:00 +18°C° 0 mm 1 mps 619 mmHg 23%
    10:00 +19°C° 0 mm 1 mps 619 mmHg 20%
    11:00 +19°C° 0 mm 2 mps 619 mmHg 19%
    12:00 +20°C° 0 mm 2 mps 619 mmHg 18%
    13:00 +21°C° 0 mm 3 mps 619 mmHg 16%
    14:00 +21°C° 0 mm 4 mps 619 mmHg 16%
    15:00 +21°C° 0 mm 4 mps 619 mmHg 16%
    16:00 +21°C° 0 mm 5 mps 618 mmHg 16%
    17:00 +20°C° 0 mm 4 mps 618 mmHg 19%
    18:00 +19°C° 0 mm 3 mps 618 mmHg 21%
    19:00 +18°C° 0 mm 2 mps 618 mmHg 24%
    20:00 +18°C° 0 mm 2 mps 618 mmHg 26%
    21:00 +18°C° 0 mm 1 mps 618 mmHg 29%
    22:00 +16°C° 0 mm 1 mps 618 mmHg 32%
    23:00 +16°C° 0 mm 1 mps 618 mmHg 34%

    Day after tomorrow, 27 April, Saturday

    Time Temperature Precipitation Wind Pressure Humidity
    00:00 +14°C° 0 mm 0 mps 618 mmHg 36%
    01:00 +13°C° 0 mm 0 mps 618 mmHg 38%
    02:00 +13°C° 0 mm 0 mps 617 mmHg 38%
    03:00 +13°C° 0 mm 0 mps 617 mmHg 38%
    04:00 +12°C° 0 mm 0 mps 617 mmHg 39%
    05:00 +13°C° 0 mm 0 mps 618 mmHg 34%
    06:00 +14°C° 0 mm 0 mps 619 mmHg 29%
    07:00 +15°C° 0 mm 0 mps 619 mmHg 25%
    08:00 +18°C° 0 mm 1 mps 620 mmHg 23%
    09:00 +19°C° 0 mm 1 mps 620 mmHg 21%
    10:00 +20°C° 0 mm 1 mps 620 mmHg 19%
    11:00 +20°C° 0 mm 2 mps 620 mmHg 17%
    12:00 +21°C° 0 mm 2 mps 620 mmHg 16%
    13:00 +22°C° 0 mm 3 mps 620 mmHg 15%
    14:00 +22°C° 0 mm 3 mps 620 mmHg 15%
    15:00 +22°C° 0 mm 3 mps 619 mmHg 16%
    16:00 +22°C° 0 mm 3 mps 619 mmHg 16%
    17:00 +21°C° 0 mm 3 mps 619 mmHg 18%
    18:00 +20°C° 0 mm 2 mps 619 mmHg 21%
    19:00 +19°C° 0 mm 2 mps 618 mmHg 23%
    20:00 +18°C° 0 mm 2 mps 619 mmHg 25%
    21:00 +19°C° 0 mm 1 mps 619 mmHg 28%
    22:00 +18°C° 0 mm 1 mps 619 mmHg 30%
    23:00 +16°C° 0 mm 1 mps 618 mmHg 32%

    28 April, Sunday

    Time Temperature Precipitation Wind Pressure Humidity
    00:00 +16°C° 0 mm 1 mps 618 mmHg 34%
    01:00 +14°C° 0 mm 0 mps 618 mmHg 36%
    02:00 +14°C° 0 mm 0 mps 617 mmHg 36%
    03:00 +13°C° 0 mm 0 mps 617 mmHg 37%
    04:00 +13°C° 0 mm 0 mps 616 mmHg 37%
    05:00 +15°C° 0 mm 1 mps 617 mmHg 33%
    06:00 +16°C° 0 mm 1 mps 618 mmHg 28%
    07:00 +18°C° 0 mm 1 mps 619 mmHg 24%
    08:00 +19°C° 0 mm 1 mps 619 mmHg 22%
    09:00 +20°C° 0 mm 1 mps 620 mmHg 20%
    10:00 +21°C° 0 mm 1 mps 620 mmHg 19%
    11:00 +21°C° 0 mm 2 mps 620 mmHg 17%
    12:00 +23°C° 0 mm 2 mps 620 mmHg 16%
    13:00 +24°C° 0 mm 3 mps 619 mmHg 14%
    14:00 +24°C° 0 mm 3 mps 619 mmHg 14%
    15:00 +24°C° 0 mm 3 mps 619 mmHg 14%
    16:00 +24°C° 0 mm 3 mps 618 mmHg 13%
    17:00 +22°C° 0 mm 3 mps 618 mmHg 16%
    18:00 +21°C° 0 mm 2 mps 618 mmHg 19%
    19:00 +21°C° 0 mm 1 mps 618 mmHg 21%
    20:00 +20°C° 0 mm 1 mps 618 mmHg 24%
    21:00 +19°C° 0 mm 1 mps 618 mmHg 26%
    22:00 +19°C° 0 mm 1 mps 618 mmHg 28%
    23:00 +18°C° 0 mm 1 mps 617 mmHg 29%

    29 April, Monday

    Time Temperature Precipitation Wind Pressure Humidity
    00:00 +15°C° 0 mm 0 mps 617 mmHg 31%
    01:00 +15°C° 0 mm 0 mps 616 mmHg 32%
    02:00 +15°C° 0 mm 1 mps 616 mmHg 30%
    03:00 +15°C° 0 mm 1 mps 616 mmHg 28%
    04:00 +15°C° 0 mm 1 mps 615 mmHg 27%
    05:00 +16°C° 0 mm 1 mps 616 mmHg 24%
    06:00 +18°C° 0 mm 1 mps 616 mmHg 22%
    07:00 +19°C° 0 mm 1 mps 617 mmHg 19%
    08:00 +20°C° 0 mm 1 mps 617 mmHg 18%
    09:00 +21°C° 0 mm 1 mps 618 mmHg 16%
    10:00 +22°C° 0 mm 1 mps 618 mmHg 14%
    11:00 +23°C° 0 mm 1 mps 617 mmHg 15%
    12:00 +23°C° 0 mm 2 mps 617 mmHg 15%
    13:00 +22°C° 0 mm 3 mps 617 mmHg 16%
    14:00 +22°C° 0 mm 3 mps 616 mmHg 16%
    15:00 +23°C° 0 mm 2 mps 616 mmHg 17%
    16:00 +23°C° 0 mm 2 mps 616 mmHg 18%
    17:00 +21°C° 0 mm 2 mps 616 mmHg 21%
    18:00 +20°C° 0 mm 2 mps 615 mmHg 25%
    19:00 +19°C° 0 mm 2 mps 615 mmHg 29%
    20:00 +18°C° 0 mm 2 mps 615 mmHg 29%
    21:00 +18°C° 0 mm 2 mps 615 mmHg 30%
    22:00 +18°C° 0 mm 2 mps 615 mmHg 31%
    23:00 +17°C° 0 mm 2 mps 615 mmHg 33%

    30 April, Tuesday

    Time Temperature Precipitation Wind Pressure Humidity
    00:00 +18°C° 0 mm 1 mps 614 mmHg 35%
    01:00 +16°C° 0 mm 1 mps 614 mmHg 37%
    02:00 +15°C° 0 mm 1 mps 614 mmHg 38%
    03:00 +15°C° 0 mm 1 mps 614 mmHg 39%
    04:00 +14°C° 0 mm 1 mps 613 mmHg 41%
    05:00 +15°C° 0 mm 1 mps 614 mmHg 38%
    06:00 +16°C° 0 mm 1 mps 615 mmHg 34%
    07:00 +18°C° 0 mm 1 mps 616 mmHg 31%
    08:00 +19°C° 0 mm 1 mps 616 mmHg 29%
    09:00 +20°C° 0 mm 1 mps 617 mmHg 27%
    10:00 +21°C° 0 mm 1 mps 617 mmHg 24%
    11:00 +22°C° 0 mm 1 mps 617 mmHg 23%
    12:00 +23°C° 0 mm 2 mps 617 mmHg 22%
    13:00 +24°C° 0 mm 3 mps 616 mmHg 21%
    14:00 +24°C° 0 mm 3 mps 616 mmHg 21%
    15:00 +23°C° 0 mm 4 mps 616 mmHg 21%
    16:00 +23°C° 0 mm 4 mps 615 mmHg 20%
    17:00 +22°C° 0 mm 3 mps 615 mmHg 23%
    18:00 +21°C° 0 mm 2 mps 615 mmHg 25%
    19:00 +20°C° 0 mm 2 mps 615 mmHg 27%
    20:00 +21°C° 0 mm 1 mps 615 mmHg 30%
    21:00 +20°C° 0 mm 1 mps 615 mmHg 32%
    22:00 +19°C° 0 mm 1 mps 615 mmHg 35%
    23:00 +19°C° 0 mm 1 mps 615 mmHg 36%
    Show more